When you browse on this site, cookies collect data to enhance your experience and personalize the content and advertising you see.
Visit our Privacy Policy to learn more. By continuing to use the site, you agree to this use of cookies and data.
  • In Hungary
  • List of Countries
  • For 7 days
  • Water Temperature
  • Satellite Maps
  • Weather Map
  • News
  • Weather Widgets
  • user-avatar
    Login

    Hourly Weather Kintampo

    Today, 22 February, Friday

    Time Temperature Precipitation Wind Pressure Humidity
    00:00 +35°C° 0 mm 2 mps 736 mmHg 43%
    01:00 +35°C° 0 mm 2 mps 736 mmHg 46%
    02:00 +34°C° 0 mm 2 mps 736 mmHg 49%
    03:00 +33°C° 0 mm 3 mps 736 mmHg 52%
    04:00 +31°C° 0 mm 3 mps 736 mmHg 56%
    05:00 +31°C° 0 mm 3 mps 736 mmHg 60%
    06:00 +30°C° 0 mm 3 mps 736 mmHg 65%
    07:00 +31°C° 0 mm 3 mps 736 mmHg 62%
    08:00 +33°C° 0 mm 3 mps 737 mmHg 59%
    09:00 +33°C° 0 mm 3 mps 737 mmHg 56%
    10:00 +36°C° 0 mm 2 mps 737 mmHg 46%
    11:00 +38°C° 0 mm 2 mps 736 mmHg 37%
    12:00 +41°C° 0 mm 2 mps 736 mmHg 22%
    13:00 +42°C° 0 mm 2 mps 735 mmHg 19%
    14:00 +42°C° 0 mm 2 mps 735 mmHg 16%
    15:00 +43°C° 0 mm 2 mps 734 mmHg 13%
    16:00 +42°C° 0 mm 2 mps 734 mmHg 13%
    17:00 +41°C° 0 mm 1 mps 734 mmHg 13%
    18:00 +40°C° 0 mm 1 mps 734 mmHg 13%
    19:00 +39°C° 0 mm 1 mps 734 mmHg 13%
    20:00 +37°C° 0 mm 1 mps 734 mmHg 14%
    21:00 +36°C° 0 mm 1 mps 735 mmHg 15%
    22:00 +35°C° 0 mm 1 mps 735 mmHg 17%
    23:00 +34°C° 0 mm 1 mps 735 mmHg 18%

    Tomorrow, 23 February, Saturday

    Time Temperature Precipitation Wind Pressure Humidity
    00:00 +34°C° 0 mm 1 mps 735 mmHg 20%
    01:00 +32°C° 0 mm 2 mps 735 mmHg 35%
    02:00 +31°C° 0 mm 2 mps 735 mmHg 49%
    03:00 +30°C° 0 mm 3 mps 734 mmHg 63%
    04:00 +29°C° 0 mm 3 mps 734 mmHg 69%
    05:00 +29°C° 0 mm 3 mps 735 mmHg 74%
    06:00 +28°C° 0 mm 3 mps 735 mmHg 80%
    07:00 +29°C° 0 mm 3 mps 736 mmHg 74%
    08:00 +30°C° 0 mm 3 mps 736 mmHg 68%
    09:00 +31°C° 0 mm 3 mps 737 mmHg 62%
    10:00 +35°C° 0 mm 2 mps 737 mmHg 48%
    11:00 +38°C° 0 mm 2 mps 736 mmHg 35%
    12:00 +41°C° 0 mm 1 mps 736 mmHg 22%
    13:00 +41°C° 0 mm 1 mps 735 mmHg 19%
    14:00 +42°C° 0 mm 1 mps 734 mmHg 17%
    15:00 +42°C° 0 mm 1 mps 733 mmHg 14%
    16:00 +41°C° 0 mm 1 mps 733 mmHg 14%
    17:00 +40°C° 0 mm 1 mps 733 mmHg 14%
    18:00 +39°C° 0 mm 1 mps 732 mmHg 14%
    19:00 +37°C° 0 mm 1 mps 733 mmHg 14%
    20:00 +36°C° 0 mm 1 mps 733 mmHg 15%
    21:00 +35°C° 0 mm 1 mps 734 mmHg 15%
    22:00 +34°C° 0 mm 1 mps 734 mmHg 18%
    23:00 +34°C° 0 mm 2 mps 734 mmHg 21%

    Day after tomorrow, 24 February, Sunday

    Time Temperature Precipitation Wind Pressure Humidity
    00:00 +34°C° 0 mm 2 mps 734 mmHg 25%
    01:00 +31°C° 0 mm 2 mps 734 mmHg 38%
    02:00 +30°C° 0 mm 3 mps 733 mmHg 51%
    03:00 +29°C° 0 mm 3 mps 733 mmHg 65%
    04:00 +29°C° 0 mm 3 mps 733 mmHg 69%
    05:00 +28°C° 0 mm 3 mps 733 mmHg 73%
    06:00 +27°C° 0 mm 3 mps 734 mmHg 77%
    07:00 +29°C° 0 mm 3 mps 734 mmHg 71%
    08:00 +30°C° 0 mm 3 mps 735 mmHg 66%
    09:00 +31°C° 0 mm 3 mps 736 mmHg 61%
    10:00 +34°C° 0 mm 3 mps 736 mmHg 52%
    11:00 +35°C° 0 mm 3 mps 735 mmHg 44%
    12:00 +37°C° 0 mm 3 mps 735 mmHg 35%
    13:00 +38°C° 0 mm 3 mps 734 mmHg 32%
    14:00 +39°C° 0 mm 3 mps 733 mmHg 29%
    15:00 +40°C° 0 mm 2 mps 732 mmHg 26%
    16:00 +39°C° 0 mm 2 mps 732 mmHg 27%
    17:00 +39°C° 0 mm 3 mps 732 mmHg 28%
    18:00 +38°C° 0 mm 3 mps 732 mmHg 29%
    19:00 +37°C° 0 mm 3 mps 733 mmHg 32%
    20:00 +36°C° 0 mm 3 mps 734 mmHg 34%
    21:00 +35°C° 0 mm 3 mps 734 mmHg 36%
    22:00 +35°C° 0 mm 3 mps 734 mmHg 38%
    23:00 +34°C° 0 mm 3 mps 734 mmHg 40%

    25 February, Monday

    Time Temperature Precipitation Wind Pressure Humidity
    00:00 +33°C° 0 mm 3 mps 734 mmHg 42%
    01:00 +31°C° 0 mm 3 mps 733 mmHg 49%
    02:00 +30°C° 0 mm 3 mps 733 mmHg 56%
    03:00 +29°C° 0 mm 2 mps 732 mmHg 62%
    04:00 +29°C° 0 mm 2 mps 733 mmHg 66%
    05:00 +28°C° 0 mm 2 mps 733 mmHg 69%
    06:00 +28°C° 0 mm 2 mps 733 mmHg 73%
    07:00 +29°C° 0 mm 2 mps 734 mmHg 68%
    08:00 +30°C° 0 mm 2 mps 735 mmHg 63%
    09:00 +32°C° 0 mm 2 mps 735 mmHg 58%
    10:00 +35°C° 0 mm 2 mps 735 mmHg 48%
    11:00 +37°C° 0 mm 2 mps 735 mmHg 38%
    12:00 +40°C° 0 mm 2 mps 734 mmHg 27%
    13:00 +40°C° 0 mm 2 mps 733 mmHg 25%
    14:00 +41°C° 0 mm 2 mps 732 mmHg 23%
    15:00 +42°C° 0 mm 2 mps 732 mmHg 20%
    16:00 +41°C° 0 mm 2 mps 732 mmHg 22%
    17:00 +40°C° 0 mm 1 mps 732 mmHg 23%
    18:00 +39°C° 0 mm 1 mps 732 mmHg 24%
    19:00 +38°C° 0 mm 2 mps 733 mmHg 27%
    20:00 +37°C° 0 mm 2 mps 734 mmHg 29%
    21:00 +37°C° 0 mm 2 mps 734 mmHg 31%
    22:00 +36°C° 0 mm 2 mps 734 mmHg 34%
    23:00 +35°C° 0 mm 2 mps 734 mmHg 37%

    26 February, Tuesday

    Time Temperature Precipitation Wind Pressure Humidity
    00:00 +34°C° 0 mm 2 mps 734 mmHg 40%
    01:00 +33°C° 0 mm 3 mps 734 mmHg 46%
    02:00 +31°C° 0 mm 3 mps 733 mmHg 53%
    03:00 +30°C° 0 mm 3 mps 733 mmHg 59%
    04:00 +30°C° 0 mm 3 mps 733 mmHg 63%
    05:00 +29°C° 0 mm 3 mps 733 mmHg 67%
    06:00 +28°C° 0 mm 3 mps 734 mmHg 72%
    07:00 +30°C° 0 mm 2 mps 734 mmHg 66%
    08:00 +31°C° 0 mm 2 mps 735 mmHg 61%
    09:00 +32°C° 0 mm 2 mps 735 mmHg 55%
    10:00 +35°C° 0 mm 2 mps 735 mmHg 46%
    11:00 +38°C° 0 mm 2 mps 734 mmHg 38%
    12:00 +40°C° 0 mm 2 mps 734 mmHg 29%
    13:00 +41°C° 0 mm 2 mps 733 mmHg 26%
    14:00 +42°C° 0 mm 1 mps 732 mmHg 23%
    15:00 +43°C° 0 mm 1 mps 732 mmHg 20%
    16:00 +42°C° 0 mm 1 mps 732 mmHg 21%
    17:00 +40°C° 0 mm 1 mps 732 mmHg 22%
    18:00 +36°C° 0 mm 0 mps 732 mmHg 24%
    19:00 +39°C° 0 mm 1 mps 733 mmHg 26%
    20:00 +37°C° 0 mm 1 mps 733 mmHg 28%
    21:00 +37°C° 0 mm 2 mps 734 mmHg 30%
    22:00 +36°C° 0 mm 2 mps 734 mmHg 38%
    23:00 +35°C° 0 mm 3 mps 734 mmHg 46%

    27 February, Wednesday

    Time Temperature Precipitation Wind Pressure Humidity
    00:00 +33°C° 0 mm 3 mps 734 mmHg 54%
    01:00 +31°C° 0 mm 3 mps 734 mmHg 58%
    02:00 +30°C° 0 mm 3 mps 733 mmHg 62%
    03:00 +30°C° 0 mm 3 mps 733 mmHg 66%
    04:00 +29°C° 0 mm 3 mps 733 mmHg 70%
    05:00 +28°C° 0 mm 3 mps 734 mmHg 73%
    06:00 +28°C° 0 mm 3 mps 734 mmHg 77%
    07:00 +29°C° 0 mm 3 mps 735 mmHg 74%
    08:00 +29°C° 0 mm 3 mps 735 mmHg 70%
    09:00 +30°C° 0 mm 2 mps 736 mmHg 67%
    10:00 +32°C° 0 mm 2 mps 736 mmHg 60%
    11:00 +34°C° 0 mm 3 mps 735 mmHg 53%
    12:00 +36°C° 0 mm 3 mps 735 mmHg 46%
    13:00 +38°C° 0 mm 2 mps 734 mmHg 39%
    14:00 +40°C° 0 mm 1 mps 733 mmHg 32%
    15:00 +39°C° 0 mm 0 mps 732 mmHg 25%
    16:00 +41°C° 0 mm 1 mps 732 mmHg 27%
    17:00 +40°C° 0 mm 1 mps 733 mmHg 28%
    18:00 +37°C° 0 mm 1 mps 733 mmHg 30%
    19:00 +37°C° 0 mm 2 mps 733 mmHg 33%
    20:00 +37°C° 0 mm 2 mps 734 mmHg 35%
    21:00 +36°C° 0 mm 3 mps 734 mmHg 38%
    22:00 +34°C° 0 mm 3 mps 734 mmHg 45%
    23:00 +33°C° 0 mm 4 mps 734 mmHg 52%
    Show more